Location: Christianberg
(48.9086°N, 14.0209°E)
Time: 21:32:02
(UTC+00:00)

Cosmos 2369 Rocket - Pass Details

Date: 20 June 2021
Orbit: 828 x 853 km, 71.0° (Epoch: 04 August)

Event Time Altitude Azimuth Distance (km) Brightness Sun altitude
Rises 00:27:48 0° 326° (NW) 3,434 5.9 -15.4°
Reaches altitude 10° 00:30:25 10° 318° (NW) 2,493 5.0 -15.2°
Maximum altitude 00:35:37 37° 253° (WSW) 1,298 2.9 -14.9°
Enters shadow 00:38:35 22° 202° (SSW) 1,776 3.2 -14.7°
